Total_Precipitation_Accumulation
0.07 0.10 0.10 0.10 0.11 0.16 0.19 0.23 0.27 0.39 0.46 0.48 0.51 0.50 0.40 0.40 0.44 0.41 0.34 0.34 0.35 0.36 0.37 0.37 0.37 0.36 0.35 0.35 0.38 0.39 0.39 0.38 0.41 0.47 0.44 0.40 0.42 0.44 0.42 0.41 0.43 0.45 0.46
0.06 0.11 0.14 0.13 0.10 0.12 0.16 0.19 0.22 0.29 0.38 0.41 0.45 0.50 0.47 0.46 0.47 0.44 0.40 0.39 0.38 0.36 0.36 0.35 0.36 0.38 0.38 0.35 0.34 0.37 0.40 0.37 0.37 0.45 0.49 0.42 0.37 0.34 0.31 0.31 0.35 0.40 0.46
0.05 0.09 0.13 0.14 0.14 0.12 0.14 0.17 0.20 0.25 0.33 0.41 0.47 0.55 0.62 0.57 0.54 0.49 0.45 0.43 0.42 0.41 0.40 0.38 0.38 0.38 0.42 0.39 0.34 0.34 0.40 0.41 0.39 0.42 0.59 0.65 0.48 0.34 0.26 0.27 0.29 0.32 0.33
0.04 0.07 0.11 0.13 0.15 0.15 0.15 0.18 0.23 0.23 0.26 0.33 0.45 0.48 0.50 0.50 0.42 0.38 0.39 0.40 0.40 0.40 0.39 0.39 0.39 0.41 0.42 0.42 0.42 0.39 0.39 0.42 0.42 0.42 0.44 0.51 0.52 0.59 0.42 0.21 0.19 0.23 0.26
0.04 0.05 0.07 0.11 0.15 0.17 0.17 0.19 0.25 0.28 0.26 0.27 0.34 0.44 0.48 0.47 0.46 0.43 0.41 0.42 0.41 0.39 0.38 0.37 0.37 0.39 0.40 0.40 0.42 0.43 0.45 0.46 0.46 0.47 0.45 0.42 0.39 0.47 0.63 0.39 0.19 0.19 0.19
0.05 0.06 0.08 0.11 0.14 0.18 0.20 0.23 0.25 0.28 0.28 0.31 0.32 0.38 0.44 0.48 0.52 0.52 0.49 0.45 0.44 0.43 0.40 0.39 0.38 0.39 0.39 0.38 0.40 0.42 0.44 0.46 0.47 0.48 0.49 0.52 0.54 0.48 0.58 0.55 0.32 0.24 0.20
0.07 0.06 0.07 0.11 0.14 0.15 0.18 0.23 0.26 0.29 0.31 0.32 0.34 0.34 0.38 0.43 0.47 0.52 0.50 0.49 0.45 0.45 0.46 0.43 0.40 0.39 0.41 0.43 0.44 0.47 0.47 0.47 0.48 0.48 0.49 0.53 0.55 0.55 0.62 0.69 0.54 0.39 0.26
0.09 0.09 0.06 0.07 0.10 0.13 0.14 0.19 0.23 0.26 0.31 0.33 0.34 0.36 0.36 0.39 0.41 0.47 0.51 0.51 0.47 0.47 0.51 0.51 0.49 0.46 0.46 0.50 0.54 0.56 0.56 0.55 0.55 0.54 0.55 0.59 0.57 0.59 0.66 0.75 0.82 0.70 0.40
0.09 0.09 0.08 0.07 0.08 0.09 0.11 0.15 0.20 0.23 0.26 0.30 0.36 0.38 0.37 0.37 0.37 0.38 0.45 0.49 0.46 0.44 0.46 0.53 0.58 0.60 0.59 0.59 0.62 0.66 0.66 0.68 0.68 0.67 0.66 0.68 0.63 0.61 0.64 0.70 0.87 1.09 0.92
0.09 0.09 0.08 0.07 0.08 0.09 0.10 0.14 0.18 0.21 0.26 0.27 0.31 0.37 0.38 0.38 0.40 0.40 0.40 0.45 0.48 0.48 0.45 0.46 0.52 0.61 0.66 0.66 0.67 0.69 0.72 0.78 0.79 0.80 0.79 0.76 0.74 0.75 0.74 0.76 0.81 0.98 1.17
0.14 0.13 0.10 0.07 0.07 0.10 0.11 0.13 0.19 0.20 0.24 0.27 0.29 0.32 0.38 0.41 0.44 0.49 0.49 0.48 0.52 0.56 0.55 0.50 0.48 0.51 0.59 0.69 0.77 0.78 0.80 0.85 0.85 0.86 0.88 0.87 0.87 0.91 0.90 0.92 0.92 0.97 1.15
0.16 0.14 0.11 0.10 0.10 0.11 0.14 0.16 0.21 0.22 0.25 0.25 0.28 0.30 0.37 0.43 0.48 0.52 0.56 0.58 0.59 0.61 0.64 0.63 0.59 0.53 0.54 0.63 0.72 0.76 0.79 0.84 0.86 0.88 0.94 0.94 0.95 0.98 0.99 1.04 1.04 1.02 1.05
0.11 0.11 0.12 0.13 0.14 0.13 0.15 0.20 0.24 0.24 0.26 0.26 0.26 0.28 0.33 0.43 0.52 0.58 0.60 0.61 0.63 0.67 0.69 0.71 0.71 0.66 0.66 0.71 0.75 0.77 0.79 0.81 0.81 0.83 0.90 0.95 1.02 1.06 1.04 1.06 1.06 1.01 0.95
0.09 0.12 0.13 0.13 0.16 0.16 0.17 0.21 0.25 0.25 0.29 0.32 0.31 0.36 0.43 0.47 0.53 0.60 0.63 0.64 0.67 0.70 0.74 0.76 0.78 0.79 0.84 0.96 0.99 0.89 0.88 0.83 0.80 0.80 0.84 0.92 1.04 1.13 1.20 1.28 1.19 1.12 1.17
0.11 0.14 0.16 0.16 0.18 0.20 0.21 0.26 0.31 0.33 0.40 0.47 0.48 0.47 0.49 0.52 0.50 0.53 0.58 0.62 0.67 0.70 0.71 0.71 0.74 0.79 0.92 1.22 1.25 1.07 0.97 0.91 0.85 0.81 0.81 0.85 1.03 1.25 1.46 1.59 1.54 1.51 1.58
0.15 0.15 0.19 0.20 0.21 0.26 0.33 0.38 0.44 0.46 0.49 0.55 0.58 0.55 0.51 0.50 0.53 0.53 0.54 0.57 0.62 0.64 0.64 0.64 0.65 0.74 0.92 1.33 1.38 1.16 0.95 0.91 0.91 0.89 0.83 0.81 0.90 1.02 1.20 1.43 1.52 1.63 1.76
0.17 0.17 0.19 0.25 0.27 0.32 0.41 0.47 0.49 0.50 0.53 0.55 0.61 0.63 0.56 0.51 0.52 0.52 0.51 0.50 0.51 0.54 0.55 0.56 0.56 0.58 0.76 1.19 1.28 1.13 0.88 0.79 0.80 0.80 0.75 0.75 0.75 0.82 0.79 0.94 1.04 1.14 1.34
0.23 0.22 0.24 0.26 0.32 0.38 0.44 0.51 0.54 0.56 0.58 0.58 0.56 0.57 0.52 0.46 0.46 0.50 0.48 0.44 0.43 0.47 0.49 0.50 0.49 0.46 0.52 0.91 1.18 1.07 0.77 0.70 0.71 0.71 0.73 0.75 0.73 0.73 0.82 0.90 0.94 0.88 0.91
0.21 0.21 0.22 0.24 0.29 0.34 0.38 0.41 0.46 0.49 0.51 0.52 0.49 0.48 0.44 0.42 0.46 0.49 0.45 0.41 0.40 0.41 0.44 0.45 0.48 0.46 0.45 0.71 1.10 1.14 0.79 0.75 0.71 0.72 0.84 0.89 0.80 0.85 1.05 1.18 1.14 0.95 0.81
0.16 0.17 0.18 0.18 0.20 0.25 0.27 0.29 0.32 0.35 0.39 0.41 0.42 0.47 0.43 0.39 0.43 0.48 0.45 0.43 0.41 0.42 0.44 0.46 0.53 0.53 0.47 0.62 1.04 1.29 0.91 0.82 0.73 0.73 0.86 1.13 1.10 1.10 1.19 1.25 1.28 1.22 0.93
0.17 0.17 0.18 0.21 0.23 0.27 0.28 0.28 0.26 0.28 0.30 0.31 0.34 0.43 0.46 0.43 0.42 0.43 0.44 0.43 0.43 0.44 0.46 0.48 0.52 0.55 0.51 0.55 0.85 1.32 1.21 0.99 0.89 0.86 0.92 1.06 1.16 1.17 1.20 1.27 1.25 1.29 1.24
0.20 0.21 0.23 0.29 0.32 0.32 0.27 0.24 0.23 0.22 0.23 0.26 0.29 0.34 0.42 0.42 0.41 0.42 0.42 0.41 0.44 0.48 0.49 0.50 0.52 0.54 0.55 0.58 0.75 1.11 1.33 1.25 1.05 0.98 0.89 0.97 1.12 1.18 1.22 1.17 1.19 1.28 1.33
0.23 0.25 0.25 0.30 0.35 0.31 0.25 0.23 0.22 0.20 0.20 0.23 0.27 0.32 0.37 0.37 0.38 0.40 0.41 0.41 0.43 0.49 0.54 0.55 0.57 0.56 0.58 0.63 0.77 0.89 1.02 1.15 1.07 1.04 1.19 1.16 1.13 1.09 1.03 1.03 1.09 1.11 1.08
0.28 0.28 0.26 0.29 0.33 0.28 0.23 0.22 0.20 0.19 0.20 0.25 0.30 0.35 0.38 0.40 0.39 0.38 0.38 0.40 0.46 0.60 0.69 0.69 0.67 0.62 0.60 0.69 0.89 0.95 0.92 1.01 1.05 1.05 1.14 1.15 1.04 0.93 0.89 0.92 0.93 0.92 0.99
0.36 0.34 0.33 0.33 0.32 0.25 0.21 0.22 0.24 0.25 0.27 0.30 0.34 0.39 0.42 0.43 0.43 0.40 0.40 0.45 0.48 0.72 0.98 0.95 0.94 0.95 0.93 1.00 1.31 1.33 1.22 1.23 1.26 1.27 1.25 1.14 1.00 0.91 0.83 0.79 0.76 0.78 0.90
0.41 0.39 0.34 0.30 0.28 0.24 0.22 0.22 0.25 0.29 0.31 0.32 0.35 0.40 0.46 0.48 0.47 0.45 0.45 0.47 0.50 0.59 0.68 0.74 0.88 0.89 1.04 1.19 1.19 1.17 1.17 1.21 1.26 1.29 1.21 1.02 0.90 0.86 0.81 0.80 0.80 0.78 0.81